Time,TemperatureF,DewpointF,PressureIn,WindDirection,WindDirectionDegrees,WindSpeedMPH,WindSpeedGustMPH,Humidity,HourlyPrecipIn,Conditions,Clouds,dailyrainin,SolarRadiationWatts/m^2,SoftwareType,DateUTC
2016-02-07 00:03:00,44.2,36.0,30.36,West,271,0.0,0.0,74,0.00,,,0.00,0,weatherlink.com 1.10,2016-02-07 08:03:00,
2016-02-07 00:18:00,43.9,36.0,30.36,West,271,0.0,0.0,75,0.00,,,0.00,0,weatherlink.com 1.10,2016-02-07 08:18:00,
2016-02-07 00:33:00,43.7,36.0,30.36,West,271,0.0,0.0,74,0.00,,,0.00,0,weatherlink.com 1.10,2016-02-07 08:33:00,
2016-02-07 00:48:00,43.6,36.0,30.36,West,271,0.0,0.0,74,0.00,,,0.00,0,weatherlink.com 1.10,2016-02-07 08:48:00,
2016-02-07 01:03:00,43.5,36.0,30.35,West,271,0.0,0.0,74,0.00,,,0.00,0,weatherlink.com 1.10,2016-02-07 09:03:00,
2016-02-07 01:48:00,43.4,36.0,30.34,West,271,0.0,0.0,74,0.00,,,0.00,0,weatherlink.com 1.10,2016-02-07 09:48:00,
2016-02-07 02:03:00,43.3,36.0,30.34,West,271,0.0,0.0,74,0.00,,,0.00,0,weatherlink.com 1.10,2016-02-07 10:03:00,
2016-02-07 02:18:00,43.2,35.0,30.34,West,271,0.0,0.0,74,0.00,,,0.00,0,weatherlink.com 1.10,2016-02-07 10:18:00,
2016-02-07 02:33:00,43.1,35.0,30.34,West,271,0.0,0.0,74,0.00,,,0.00,0,weatherlink.com 1.10,2016-02-07 10:33:00,
2016-02-07 02:48:00,42.8,35.0,30.34,West,271,0.0,0.0,74,0.00,,,0.00,0,weatherlink.com 1.10,2016-02-07 10:48:00,
2016-02-07 03:03:00,42.6,35.0,30.34,West,271,0.0,0.0,74,0.00,,,0.00,0,weatherlink.com 1.10,2016-02-07 11:03:00,
2016-02-07 03:18:00,42.5,35.0,30.33,West,271,0.0,0.0,74,0.00,,,0.00,0,weatherlink.com 1.10,2016-02-07 11:18:00,
2016-02-07 03:33:00,42.3,35.0,30.33,West,271,0.0,0.0,74,0.00,,,0.00,0,weatherlink.com 1.10,2016-02-07 11:33:00,
2016-02-07 03:48:00,42.1,34.0,30.33,West,271,0.0,0.0,74,0.00,,,0.00,0,weatherlink.com 1.10,2016-02-07 11:48:00,
2016-02-07 04:03:00,42.0,34.0,30.33,West,271,0.0,0.0,74,0.00,,,0.00,0,weatherlink.com 1.10,2016-02-07 12:03:00,
2016-02-07 04:18:00,41.7,34.0,30.33,West,271,0.0,0.0,74,0.01,,,0.01,0,weatherlink.com 1.10,2016-02-07 12:18:00,
2016-02-07 04:33:00,41.4,34.0,30.32,West,271,0.0,0.0,74,0.01,,,0.01,0,weatherlink.com 1.10,2016-02-07 12:33:00,
2016-02-07 04:48:00,41.3,34.0,30.33,West,271,0.0,0.0,74,0.01,,,0.01,0,weatherlink.com 1.10,2016-02-07 12:48:00,
2016-02-07 05:03:00,41.1,33.0,30.32,West,271,0.0,0.0,74,0.01,,,0.01,0,weatherlink.com 1.10,2016-02-07 13:03:00,
2016-02-07 05:18:00,40.9,33.0,30.32,West,271,0.0,0.0,74,0.00,,,0.01,0,weatherlink.com 1.10,2016-02-07 13:18:00,
2016-02-07 05:33:00,40.7,33.0,30.32,West,271,0.0,0.0,74,0.00,,,0.01,0,weatherlink.com 1.10,2016-02-07 13:33:00,
2016-02-07 05:48:00,40.7,33.0,30.32,West,271,0.0,0.0,74,0.00,,,0.01,0,weatherlink.com 1.10,2016-02-07 13:48:00,
2016-02-07 06:03:00,40.6,33.0,30.32,West,271,0.0,0.0,74,0.00,,,0.01,0,weatherlink.com 1.10,2016-02-07 14:03:00,
2016-02-07 06:18:00,40.5,33.0,30.32,West,271,0.0,0.0,74,0.00,,,0.01,0,weatherlink.com 1.10,2016-02-07 14:18:00,
2016-02-07 06:48:00,40.1,32.0,30.33,West,271,0.0,0.0,74,0.00,,,0.01,0,weatherlink.com 1.10,2016-02-07 14:48:00,
2016-02-07 07:03:00,39.9,32.0,30.33,West,271,0.0,0.0,74,0.00,,,0.01,0,weatherlink.com 1.10,2016-02-07 15:03:00,
2016-02-07 07:20:00,39.7,32.0,30.33,West,271,0.0,0.0,75,0.00,,,0.01,7,weatherlink.com 1.10,2016-02-07 15:20:00,
2016-02-07 07:37:00,39.7,32.0,30.33,West,271,0.0,0.0,74,0.00,,,0.01,16,weatherlink.com 1.10,2016-02-07 15:37:00,
2016-02-07 07:54:00,39.9,32.0,30.33,West,271,0.0,0.0,74,0.00,,,0.01,21,weatherlink.com 1.10,2016-02-07 15:54:00,
2016-02-07 08:10:00,40.0,32.0,30.33,West,271,0.0,0.0,74,0.00,,,0.01,18,weatherlink.com 1.10,2016-02-07 16:10:00,
2016-02-07 08:26:00,40.2,33.0,30.33,West,271,0.0,0.0,74,0.00,,,0.01,23,weatherlink.com 1.10,2016-02-07 16:26:00,
2016-02-07 08:41:00,40.4,33.0,30.33,West,271,0.0,0.0,74,0.00,,,0.01,25,weatherlink.com 1.10,2016-02-07 16:41:00,
2016-02-07 08:56:00,40.9,33.0,30.33,West,271,0.0,0.0,74,0.00,,,0.01,25,weatherlink.com 1.10,2016-02-07 16:56:00,
2016-02-07 09:11:00,41.5,34.0,30.33,West,271,0.0,0.0,74,0.00,,,0.01,25,weatherlink.com 1.10,2016-02-07 17:11:00,
2016-02-07 09:26:00,41.8,34.0,30.33,West,271,0.0,0.0,74,0.00,,,0.01,25,weatherlink.com 1.10,2016-02-07 17:26:00,
2016-02-07 09:57:00,44.6,36.0,30.32,West,271,0.0,1.0,73,0.00,,,0.01,28,weatherlink.com 1.10,2016-02-07 17:57:00,
2016-02-07 10:12:00,45.0,36.0,30.32,West,271,0.0,0.0,72,0.00,,,0.01,30,weatherlink.com 1.10,2016-02-07 18:12:00,
2016-02-07 10:27:00,46.1,38.0,30.32,West,271,0.0,1.0,72,0.00,,,0.01,53,weatherlink.com 1.10,2016-02-07 18:27:00,
2016-02-07 10:41:00,47.3,39.0,30.32,West,271,0.0,1.0,72,0.00,,,0.01,102,weatherlink.com 1.10,2016-02-07 18:41:00,
2016-02-07 10:57:00,48.5,40.0,30.32,West,271,0.0,0.0,72,0.00,,,0.01,39,weatherlink.com 1.10,2016-02-07 18:57:00,
2016-02-07 11:11:00,49.7,41.0,30.31,West,271,0.0,0.0,72,0.00,,,0.01,51,weatherlink.com 1.10,2016-02-07 19:11:00,
2016-02-07 11:27:00,51.1,42.0,30.31,West,271,0.0,0.0,72,0.00,,,0.01,35,weatherlink.com 1.10,2016-02-07 19:27:00,
2016-02-07 11:42:00,52.1,43.0,30.30,West,271,0.0,0.0,71,0.00,,,0.01,37,weatherlink.com 1.10,2016-02-07 19:42:00,
2016-02-07 11:57:00,53.4,44.0,30.30,West,271,0.0,0.0,71,0.00,,,0.01,564,weatherlink.com 1.10,2016-02-07 19:57:00,
2016-02-07 12:12:00,55.9,47.0,30.29,West,271,0.0,0.0,71,0.00,,,0.01,580,weatherlink.com 1.10,2016-02-07 20:12:00,
2016-02-07 12:26:00,58.2,48.0,30.28,West,271,0.0,0.0,70,0.00,,,0.01,610,weatherlink.com 1.10,2016-02-07 20:26:00,
2016-02-07 12:41:00,61.6,57.0,30.27,West,271,0.0,0.0,86,0.00,,,0.01,613,weatherlink.com 1.10,2016-02-07 20:41:00,
2016-02-07 12:57:00,62.8,58.0,30.26,West,271,0.0,0.0,84,0.00,,,0.01,612,weatherlink.com 1.10,2016-02-07 20:57:00,
2016-02-07 13:12:00,65.4,58.0,30.25,West,271,0.0,0.0,76,0.00,,,0.01,606,weatherlink.com 1.10,2016-02-07 21:12:00,
2016-02-07 13:27:00,67.7,58.0,30.24,West,271,0.0,0.0,71,0.00,,,0.01,596,weatherlink.com 1.10,2016-02-07 21:27:00,
2016-02-07 13:42:00,68.0,58.0,30.24,West,271,0.0,2.0,70,0.00,,,0.01,580,weatherlink.com 1.10,2016-02-07 21:42:00,
2016-02-07 13:57:00,68.3,55.0,30.23,West,271,1.0,3.0,63,0.00,,,0.01,563,weatherlink.com 1.10,2016-02-07 21:57:00,
2016-02-07 14:13:00,66.8,54.0,30.23,West,271,0.0,1.0,63,0.00,,,0.01,541,weatherlink.com 1.10,2016-02-07 22:13:00,
2016-02-07 14:43:00,65.9,54.0,30.22,West,271,0.0,1.0,66,0.00,,,0.01,485,weatherlink.com 1.10,2016-02-07 22:43:00,
2016-02-07 14:58:00,65.6,54.0,30.22,West,271,0.0,3.0,67,0.00,,,0.01,452,weatherlink.com 1.10,2016-02-07 22:58:00,
2016-02-07 15:13:00,65.4,55.0,30.22,West,271,0.0,1.0,70,0.00,,,0.01,418,weatherlink.com 1.10,2016-02-07 23:13:00,
2016-02-07 15:28:00,65.0,55.0,30.22,West,271,0.0,0.0,70,0.00,,,0.01,378,weatherlink.com 1.10,2016-02-07 23:28:00,
2016-02-07 15:43:00,63.5,54.0,30.22,West,271,0.0,1.0,72,0.00,,,0.01,144,weatherlink.com 1.10,2016-02-07 23:43:00,
2016-02-07 15:58:00,60.4,54.0,30.22,West,271,2.0,3.0,80,0.00,,,0.01,44,weatherlink.com 1.10,2016-02-07 23:58:00,
2016-02-07 16:13:00,58.9,54.0,30.22,West,271,0.0,2.0,83,0.00,,,0.01,32,weatherlink.com 1.10,2016-02-08 00:13:00,
2016-02-07 16:28:00,57.7,53.0,30.22,West,271,0.0,0.0,85,0.00,,,0.01,30,weatherlink.com 1.10,2016-02-08 00:28:00,
2016-02-07 16:42:00,57.4,53.0,30.22,West,271,0.0,0.0,86,0.00,,,0.01,21,weatherlink.com 1.10,2016-02-08 00:42:00,
2016-02-07 16:58:00,56.7,53.0,30.22,West,271,0.0,0.0,86,0.00,,,0.01,18,weatherlink.com 1.10,2016-02-08 00:58:00,
2016-02-07 17:13:00,56.3,52.0,30.22,West,271,0.0,0.0,84,0.00,,,0.01,14,weatherlink.com 1.10,2016-02-08 01:13:00,
2016-02-07 17:27:00,55.7,51.0,30.23,West,271,0.0,0.0,83,0.00,,,0.01,11,weatherlink.com 1.10,2016-02-08 01:27:00,
2016-02-07 17:43:00,55.2,50.0,30.23,West,271,0.0,0.0,82,0.00,,,0.01,0,weatherlink.com 1.10,2016-02-08 01:43:00,
2016-02-07 17:58:00,54.6,49.0,30.23,West,271,0.0,0.0,81,0.00,,,0.01,0,weatherlink.com 1.10,2016-02-08 01:58:00,
2016-02-07 18:12:00,54.2,48.0,30.22,West,271,0.0,0.0,80,0.00,,,0.01,0,weatherlink.com 1.10,2016-02-08 02:12:00,
2016-02-07 18:30:00,53.6,47.0,30.23,West,271,0.0,0.0,79,0.00,,,0.01,0,weatherlink.com 1.10,2016-02-08 02:30:00,
2016-02-07 18:45:00,53.1,47.0,30.23,West,271,0.0,0.0,79,0.00,,,0.01,0,weatherlink.com 1.10,2016-02-08 02:45:00,
2016-02-07 19:00:00,52.6,46.0,30.24,West,271,0.0,0.0,78,0.00,,,0.01,0,weatherlink.com 1.10,2016-02-08 03:00:00,